Time,TemperatureF,DewpointF,PressureIn,WindDirection,WindDirectionDegrees,WindSpeedMPH,WindSpeedGustMPH,Humidity,HourlyPrecipIn,Conditions,Clouds,dailyrainin,SoftwareType,DateUTC
2013-02-11 00:00:00,41.0,0.0,30.12,North,0,0.0,3.0,0,0.01,,,0.04,Weather View 32 v70,2013-02-11 05:00:00,
2013-02-11 00:01:00,41.0,0.0,30.12,North,0,0.0,3.0,0,0.01,,,0.00,Weather View 32 v70,2013-02-11 05:01:00,
2013-02-11 00:06:00,41.2,0.0,30.11,North,0,0.0,1.0,0,0.00,,,0.00,Weather View 32 v70,2013-02-11 05:06:00,
2013-02-11 00:07:00,41.2,0.0,30.11,North,0,0.0,1.0,0,0.00,,,0.00,Weather View 32 v70,2013-02-11 05:07:00,
2013-02-11 00:12:00,41.0,0.0,30.12,North,0,0.0,1.0,0,0.00,,,0.00,Weather View 32 v70,2013-02-11 05:12:00,
2013-02-11 00:17:00,40.8,0.0,30.12,North,0,0.0,1.0,0,0.00,,,0.00,Weather View 32 v70,2013-02-11 05:17:00,
2013-02-11 00:22:00,41.0,0.0,30.11,North,0,0.0,0.0,0,0.00,,,0.00,Weather View 32 v70,2013-02-11 05:22:00,
2013-02-11 00:27:00,41.0,0.0,30.10,North,0,0.0,0.0,0,0.00,,,0.00,Weather View 32 v70,2013-02-11 05:27:00,
2013-02-11 00:33:00,41.0,0.0,30.11,North,0,0.0,0.0,0,0.00,,,0.00,Weather View 32 v70,2013-02-11 05:33:00,
2013-02-11 00:38:00,41.0,0.0,30.10,North,0,0.0,0.0,0,0.00,,,0.00,Weather View 32 v70,2013-02-11 05:38:00,
2013-02-11 00:43:00,41.0,0.0,30.10,North,0,0.0,0.0,0,0.00,,,0.00,Weather View 32 v70,2013-02-11 05:43:00,
2013-02-11 00:48:00,41.0,0.0,30.09,North,0,0.0,0.0,0,0.00,,,0.00,Weather View 32 v70,2013-02-11 05:48:00,
2013-02-11 00:53:00,41.0,0.0,30.09,North,0,0.0,0.0,0,0.00,,,0.00,Weather View 32 v70,2013-02-11 05:53:00,
2013-02-11 00:59:00,41.0,0.0,30.09,North,0,0.0,0.0,0,0.00,,,0.00,Weather View 32 v70,2013-02-11 05:59:00,
2013-02-11 01:04:00,41.2,0.0,30.09,North,0,0.0,0.0,0,0.00,,,0.00,Weather View 32 v70,2013-02-11 06:04:00,
2013-02-11 01:09:00,41.4,0.0,30.08,North,0,0.0,0.0,0,0.00,,,0.00,Weather View 32 v70,2013-02-11 06:09:00,
2013-02-11 01:14:00,41.4,0.0,30.07,West,270,0.0,0.0,0,0.00,,,0.00,Weather View 32 v70,2013-02-11 06:14:00,
2013-02-11 01:20:00,41.2,0.0,30.08,West,270,0.0,0.0,0,0.00,,,0.00,Weather View 32 v70,2013-02-11 06:20:00,
2013-02-11 01:25:00,41.4,0.0,30.07,West,270,0.0,0.0,0,0.00,,,0.00,Weather View 32 v70,2013-02-11 06:25:00,
2013-02-11 01:30:00,41.5,0.0,30.06,West,270,0.0,1.0,0,0.00,,,0.00,Weather View 32 v70,2013-02-11 06:30:00,
2013-02-11 01:35:00,41.7,0.0,30.05,West,270,0.0,1.0,0,0.00,,,0.00,Weather View 32 v70,2013-02-11 06:35:00,
2013-02-11 01:40:00,41.9,0.0,30.07,West,270,0.0,1.0,0,0.00,,,0.00,Weather View 32 v70,2013-02-11 06:40:00,
2013-02-11 01:45:00,42.1,0.0,30.08,West,270,0.0,1.0,0,0.00,,,0.00,Weather View 32 v70,2013-02-11 06:45:00,
2013-02-11 01:50:00,42.4,0.0,30.08,West,270,0.0,1.0,0,0.00,,,0.00,Weather View 32 v70,2013-02-11 06:50:00,
2013-02-11 01:55:00,42.4,0.0,30.08,West,270,0.0,1.0,0,0.00,,,0.00,Weather View 32 v70,2013-02-11 06:55:00,
2013-02-11 02:00:00,42.4,0.0,30.09,West,270,0.0,1.0,0,0.00,,,0.00,Weather View 32 v70,2013-02-11 07:00:00,
2013-02-11 02:05:00,42.4,0.0,30.09,West,270,0.0,1.0,0,0.00,,,0.00,Weather View 32 v70,2013-02-11 07:05:00,
2013-02-11 02:11:00,42.4,0.0,30.08,West,270,0.0,1.0,0,0.00,,,0.00,Weather View 32 v70,2013-02-11 07:11:00,
2013-02-11 02:16:00,42.4,0.0,30.08,West,270,0.0,1.0,0,0.00,,,0.00,Weather View 32 v70,2013-02-11 07:16:00,
2013-02-11 02:21:00,42.6,0.0,30.07,West,270,0.0,1.0,0,0.00,,,0.00,Weather View 32 v70,2013-02-11 07:21:00,
2013-02-11 02:26:00,42.6,0.0,30.08,West,270,0.0,1.0,0,0.00,,,0.00,Weather View 32 v70,2013-02-11 07:26:00,
2013-02-11 02:31:00,42.8,0.0,30.07,West,270,0.0,1.0,0,0.00,,,0.00,Weather View 32 v70,2013-02-11 07:31:00,
2013-02-11 02:36:00,43.0,0.0,30.06,West,270,1.0,1.0,0,0.00,,,0.00,Weather View 32 v70,2013-02-11 07:36:00,
2013-02-11 02:42:00,42.8,0.0,30.05,West,270,0.0,2.0,0,0.00,,,0.00,Weather View 32 v70,2013-02-11 07:42:00,
2013-02-11 02:47:00,43.0,0.0,30.04,West,270,0.0,2.0,0,0.00,,,0.00,Weather View 32 v70,2013-02-11 07:47:00,
2013-02-11 02:52:00,43.2,0.0,30.06,West,270,0.0,5.0,0,0.00,,,0.00,Weather View 32 v70,2013-02-11 07:52:00,
2013-02-11 02:58:00,43.3,0.0,30.06,West,270,1.0,5.0,0,0.00,,,0.00,Weather View 32 v70,2013-02-11 07:58:00,
2013-02-11 03:03:00,43.3,0.0,30.05,West,270,0.0,5.0,0,0.00,,,0.00,Weather View 32 v70,2013-02-11 08:03:00,
2013-02-11 03:08:00,43.5,0.0,30.05,West,270,0.0,5.0,0,0.00,,,0.00,Weather View 32 v70,2013-02-11 08:08:00,
2013-02-11 03:14:00,43.5,0.0,30.05,West,270,0.0,5.0,0,0.00,,,0.00,Weather View 32 v70,2013-02-11 08:14:00,
2013-02-11 03:19:00,43.5,0.0,30.06,West,270,0.0,5.0,0,0.00,,,0.00,Weather View 32 v70,2013-02-11 08:19:00,
2013-02-11 03:24:00,43.7,0.0,30.06,West,270,0.0,5.0,0,0.00,,,0.00,Weather View 32 v70,2013-02-11 08:24:00,
2013-02-11 03:29:00,43.9,0.0,30.05,North,0,0.0,5.0,0,0.00,,,0.00,Weather View 32 v70,2013-02-11 08:29:00,
2013-02-11 03:34:00,43.7,0.0,30.03,West,270,0.0,5.0,0,0.00,,,0.00,Weather View 32 v70,2013-02-11 08:34:00,
2013-02-11 03:39:00,43.9,0.0,30.02,West,270,0.0,5.0,0,0.00,,,0.00,Weather View 32 v70,2013-02-11 08:39:00,
2013-02-11 03:44:00,43.9,0.0,30.03,West,270,0.0,5.0,0,0.00,,,0.00,Weather View 32 v70,2013-02-11 08:44:00,
2013-02-11 03:49:00,43.9,0.0,30.01,West,270,0.0,5.0,0,0.00,,,0.00,Weather View 32 v70,2013-02-11 08:49:00,
2013-02-11 03:55:00,44.1,0.0,30.02,North,0,1.0,4.0,0,0.00,,,0.00,Weather View 32 v70,2013-02-11 08:55:00,
2013-02-11 04:00:00,44.4,0.0,30.04,West,270,0.0,4.0,0,0.00,,,0.00,Weather View 32 v70,2013-02-11 09:00:00,
2013-02-11 04:05:00,44.4,0.0,30.03,North,0,1.0,4.0,0,0.00,,,0.00,Weather View 32 v70,2013-02-11 09:05:00,
2013-02-11 04:10:00,44.6,0.0,30.03,West,270,0.0,4.0,0,0.00,,,0.00,Weather View 32 v70,2013-02-11 09:10:00,
2013-02-11 04:15:00,44.4,0.0,30.01,North,0,1.0,3.0,0,0.00,,,0.00,Weather View 32 v70,2013-02-11 09:15:00,
2013-02-11 04:20:00,44.6,0.0,30.02,West,270,0.0,3.0,0,0.00,,,0.00,Weather View 32 v70,2013-02-11 09:20:00,
2013-02-11 04:25:00,44.6,0.0,30.03,West,270,0.0,3.0,0,0.00,,,0.00,Weather View 32 v70,2013-02-11 09:25:00,
2013-02-11 04:31:00,44.6,0.0,30.03,West,270,0.0,3.0,0,0.00,,,0.00,Weather View 32 v70,2013-02-11 09:31:00,
2013-02-11 04:36:00,44.6,0.0,30.02,West,270,0.0,3.0,0,0.00,,,0.00,Weather View 32 v70,2013-02-11 09:36:00,
2013-02-11 04:41:00,44.6,0.0,30.02,West,270,0.0,3.0,0,0.00,,,0.00,Weather View 32 v70,2013-02-11 09:41:00,
2013-02-11 04:46:00,44.6,0.0,30.03,West,270,0.0,3.0,0,0.00,,,0.00,Weather View 32 v70,2013-02-11 09:46:00,
2013-02-11 04:51:00,44.6,0.0,30.01,West,270,0.0,3.0,0,0.00,,,0.00,Weather View 32 v70,2013-02-11 09:51:00,
2013-02-11 04:56:00,44.6,0.0,30.03,West,270,0.0,3.0,0,0.00,,,0.00,Weather View 32 v70,2013-02-11 09:56:00,
2013-02-11 05:02:00,44.8,0.0,30.01,West,270,0.0,2.0,0,0.00,,,0.00,Weather View 32 v70,2013-02-11 10:02:00,
2013-02-11 05:07:00,44.8,0.0,30.03,West,270,0.0,2.0,0,0.00,,,0.00,Weather View 32 v70,2013-02-11 10:07:00,
2013-02-11 05:12:00,44.8,0.0,30.02,West,270,0.0,1.0,0,0.00,,,0.00,Weather View 32 v70,2013-02-11 10:12:00,
2013-02-11 05:17:00,44.6,0.0,30.02,West,270,0.0,1.0,0,0.00,,,0.00,Weather View 32 v70,2013-02-11 10:17:00,
2013-02-11 05:22:00,44.8,0.0,30.02,West,270,0.0,1.0,0,0.00,,,0.00,Weather View 32 v70,2013-02-11 10:22:00,
2013-02-11 05:27:00,44.8,0.0,30.01,West,270,0.0,0.0,0,0.00,,,0.00,Weather View 32 v70,2013-02-11 10:27:00,
2013-02-11 05:32:00,44.8,0.0,30.02,West,270,0.0,0.0,0,0.00,,,0.00,Weather View 32 v70,2013-02-11 10:32:00,
2013-02-11 05:37:00,45.0,0.0,30.02,West,270,0.0,1.0,0,0.00,,,0.00,Weather View 32 v70,2013-02-11 10:37:00,
2013-02-11 05:43:00,45.1,0.0,30.02,West,270,0.0,1.0,0,0.00,,,0.00,Weather View 32 v70,2013-02-11 10:43:00,
2013-02-11 05:48:00,45.0,0.0,30.02,West,270,0.0,1.0,0,0.00,,,0.00,Weather View 32 v70,2013-02-11 10:48:00,
2013-02-11 05:53:00,45.1,0.0,30.01,West,270,0.0,1.0,0,0.00,,,0.00,Weather View 32 v70,2013-02-11 10:53:00,
2013-02-11 05:58:00,45.0,0.0,30.02,West,270,0.0,1.0,0,0.00,,,0.00,Weather View 32 v70,2013-02-11 10:58:00,
2013-02-11 06:03:00,45.1,0.0,30.02,West,270,0.0,1.0,0,0.00,,,0.00,Weather View 32 v70,2013-02-11 11:03:00,
2013-02-11 06:08:00,45.0,0.0,30.00,West,270,0.0,1.0,0,0.01,,,0.01,Weather View 32 v70,2013-02-11 11:08:00,
2013-02-11 06:13:00,45.1,0.0,30.00,West,270,0.0,1.0,0,0.01,,,0.01,Weather View 32 v70,2013-02-11 11:13:00,
2013-02-11 06:19:00,45.1,0.0,30.00,West,270,0.0,1.0,0,0.01,,,0.01,Weather View 32 v70,2013-02-11 11:19:00,
2013-02-11 06:24:00,45.1,0.0,29.99,West,270,0.0,1.0,0,0.01,,,0.01,Weather View 32 v70,2013-02-11 11:24:00,
2013-02-11 06:29:00,45.1,0.0,30.00,West,270,0.0,1.0,0,0.01,,,0.01,Weather View 32 v70,2013-02-11 11:29:00,
2013-02-11 06:34:00,45.1,0.0,30.01,West,270,0.0,1.0,0,0.01,,,0.01,Weather View 32 v70,2013-02-11 11:34:00,
2013-02-11 06:39:00,45.3,0.0,30.02,West,270,0.0,0.0,0,0.02,,,0.02,Weather View 32 v70,2013-02-11 11:39:00,
2013-02-11 06:44:00,45.3,0.0,30.00,West,270,0.0,0.0,0,0.02,,,0.02,Weather View 32 v70,2013-02-11 11:44:00,
2013-02-11 06:49:00,45.3,0.0,30.01,West,270,0.0,0.0,0,0.02,,,0.02,Weather View 32 v70,2013-02-11 11:49:00,
2013-02-11 06:54:00,45.5,0.0,30.01,West,270,0.0,0.0,0,0.02,,,0.02,Weather View 32 v70,2013-02-11 11:54:00,
2013-02-11 06:59:00,45.3,0.0,29.99,West,270,0.0,0.0,0,0.02,,,0.02,Weather View 32 v70,2013-02-11 11:59:00,
2013-02-11 07:04:00,45.5,0.0,30.01,West,270,0.0,0.0,0,0.02,,,0.02,Weather View 32 v70,2013-02-11 12:04:00,
2013-02-11 07:10:00,45.5,0.0,30.01,West,270,0.0,0.0,0,0.02,,,0.03,Weather View 32 v70,2013-02-11 12:10:00,
2013-02-11 07:15:00,45.5,0.0,30.00,West,270,0.0,0.0,0,0.02,,,0.03,Weather View 32 v70,2013-02-11 12:15:00,
2013-02-11 07:20:00,45.5,0.0,30.00,West,270,0.0,0.0,0,0.02,,,0.03,Weather View 32 v70,2013-02-11 12:20:00,
2013-02-11 07:25:00,45.5,0.0,30.01,West,270,0.0,0.0,0,0.03,,,0.04,Weather View 32 v70,2013-02-11 12:25:00,
2013-02-11 07:30:00,45.5,0.0,30.00,West,270,0.0,0.0,0,0.03,,,0.04,Weather View 32 v70,2013-02-11 12:30:00,
2013-02-11 07:35:00,45.5,0.0,29.98,West,270,0.0,1.0,0,0.04,,,0.05,Weather View 32 v70,2013-02-11 12:35:00,
2013-02-11 07:40:00,45.7,0.0,30.00,West,270,1.0,1.0,0,0.03,,,0.05,Weather View 32 v70,2013-02-11 12:40:00,
2013-02-11 07:45:00,45.7,0.0,30.01,West,270,0.0,1.0,0,0.03,,,0.05,Weather View 32 v70,2013-02-11 12:45:00,
2013-02-11 07:50:00,45.9,0.0,29.99,West,270,0.0,1.0,0,0.03,,,0.05,Weather View 32 v70,2013-02-11 12:50:00,
2013-02-11 07:56:00,45.9,0.0,29.97,North,0,0.0,1.0,0,0.03,,,0.05,Weather View 32 v70,2013-02-11 12:56:00,
2013-02-11 08:01:00,46.0,0.0,29.98,North,0,0.0,1.0,0,0.03,,,0.05,Weather View 32 v70,2013-02-11 13:01:00,
2013-02-11 08:06:00,46.4,0.0,29.98,North,0,0.0,3.0,0,0.03,,,0.05,Weather View 32 v70,2013-02-11 13:06:00,
2013-02-11 08:11:00,46.4,0.0,29.98,North,0,0.0,3.0,0,0.03,,,0.06,Weather View 32 v70,2013-02-11 13:11:00,
2013-02-11 08:17:00,46.8,0.0,29.97,North,0,0.0,3.0,0,0.03,,,0.06,Weather View 32 v70,2013-02-11 13:17:00,
2013-02-11 08:22:00,46.8,0.0,29.96,West,270,0.0,3.0,0,0.03,,,0.06,Weather View 32 v70,2013-02-11 13:22:00,
2013-02-11 08:30:00,47.3,0.0,29.96,North,0,1.0,3.0,0,0.02,,,0.06,Weather View 32 v70,2013-02-11 13:30:00,
2013-02-11 08:35:00,47.5,0.0,29.96,North,0,0.0,3.0,0,0.01,,,0.06,Weather View 32 v70,2013-02-11 13:35:00,
2013-02-11 08:40:00,47.8,0.0,29.96,North,0,0.0,3.0,0,0.01,,,0.06,Weather View 32 v70,2013-02-11 13:40:00,
2013-02-11 08:50:00,47.8,0.0,29.96,West,270,0.0,3.0,0,0.01,,,0.06,Weather View 32 v70,2013-02-11 13:50:00,
2013-02-11 08:55:00,47.8,0.0,29.94,West,270,1.0,3.0,0,0.01,,,0.06,Weather View 32 v70,2013-02-11 13:55:00,
2013-02-11 09:00:00,48.0,0.0,29.96,West,270,0.0,3.0,0,0.01,,,0.06,Weather View 32 v70,2013-02-11 14:00:00,
2013-02-11 09:05:00,48.2,0.0,29.96,South,180,4.0,4.0,0,0.01,,,0.06,Weather View 32 v70,2013-02-11 14:05:00,
2013-02-11 09:10:00,48.6,0.0,29.96,West,270,0.0,4.0,0,0.00,,,0.06,Weather View 32 v70,2013-02-11 14:10:00,
2013-02-11 09:15:00,49.1,0.0,29.96,West,270,3.0,5.0,0,0.00,,,0.06,Weather View 32 v70,2013-02-11 14:15:00,
2013-02-11 09:20:00,49.6,0.0,29.96,North,0,1.0,6.0,0,0.00,,,0.06,Weather View 32 v70,2013-02-11 14:20:00,
2013-02-11 09:25:00,50.2,0.0,29.95,North,0,0.0,7.0,0,0.00,,,0.06,Weather View 32 v70,2013-02-11 14:25:00,
2013-02-11 09:31:00,50.5,0.0,29.95,North,0,3.0,7.0,0,0.00,,,0.06,Weather View 32 v70,2013-02-11 14:31:00,
2013-02-11 09:36:00,51.3,0.0,29.95,South,180,3.0,7.0,0,0.00,,,0.06,Weather View 32 v70,2013-02-11 14:36:00,
2013-02-11 09:41:00,51.6,0.0,29.96,North,0,1.0,7.0,0,0.00,,,0.06,Weather View 32 v70,2013-02-11 14:41:00,
2013-02-11 09:46:00,52.0,0.0,29.95,West,270,1.0,7.0,0,0.00,,,0.06,Weather View 32 v70,2013-02-11 14:46:00,
2013-02-11 09:51:00,52.2,0.0,29.96,West,270,0.0,7.0,0,0.00,,,0.06,Weather View 32 v70,2013-02-11 14:51:00,
2013-02-11 09:56:00,52.7,0.0,29.95,North,0,0.0,7.0,0,0.00,,,0.06,Weather View 32 v70,2013-02-11 14:56:00,
2013-02-11 10:02:00,52.7,0.0,29.96,West,270,0.0,7.0,0,0.00,,,0.06,Weather View 32 v70,2013-02-11 15:02:00,
2013-02-11 10:07:00,52.7,0.0,29.97,North,0,0.0,7.0,0,0.00,,,0.06,Weather View 32 v70,2013-02-11 15:07:00,
2013-02-11 10:12:00,52.9,0.0,29.96,North,0,0.0,7.0,0,0.00,,,0.06,Weather View 32 v70,2013-02-11 15:12:00,
2013-02-11 10:17:00,52.9,0.0,29.95,West,270,0.0,7.0,0,0.00,,,0.06,Weather View 32 v70,2013-02-11 15:17:00,
2013-02-11 10:23:00,53.2,0.0,29.96,North,0,0.0,7.0,0,0.00,,,0.06,Weather View 32 v70,2013-02-11 15:23:00,
2013-02-11 10:28:00,53.4,0.0,29.96,SSE,158,5.0,7.0,0,0.00,,,0.06,Weather View 32 v70,2013-02-11 15:28:00,
2013-02-11 10:33:00,53.6,0.0,29.94,South,180,3.0,7.0,0,0.00,,,0.06,Weather View 32 v70,2013-02-11 15:33:00,
2013-02-11 10:38:00,53.8,0.0,29.95,North,0,2.0,7.0,0,0.00,,,0.06,Weather View 32 v70,2013-02-11 15:38:00,
2013-02-11 10:40:00,53.6,0.0,29.96,North,0,2.0,7.0,0,0.00,,,0.06,Weather View 32 v70,2013-02-11 15:40:00,
2013-02-11 15:13:00,59.4,0.0,29.87,West,270,6.0,9.0,0,0.00,,,0.07,Weather View 32 v70,2013-02-11 20:13:00,
2013-02-11 15:18:00,59.2,0.0,29.85,West,270,11.0,16.0,0,0.00,,,0.07,Weather View 32 v70,2013-02-11 20:18:00,
2013-02-11 15:23:00,59.5,0.0,29.86,West,270,0.0,16.0,0,0.00,,,0.07,Weather View 32 v70,2013-02-11 20:23:00,
2013-02-11 15:28:00,59.4,0.0,29.85,West,270,9.0,16.0,0,0.00,,,0.07,Weather View 32 v70,2013-02-11 20:28:00,
2013-02-11 15:33:00,59.2,0.0,29.84,North,0,6.0,16.0,0,0.00,,,0.07,Weather View 32 v70,2013-02-11 20:33:00,
2013-02-11 15:38:00,59.4,0.0,29.84,North,0,5.0,16.0,0,0.00,,,0.07,Weather View 32 v70,2013-02-11 20:38:00,
2013-02-11 15:43:00,59.4,0.0,29.82,West,270,5.0,16.0,0,0.00,,,0.07,Weather View 32 v70,2013-02-11 20:43:00,
2013-02-11 15:49:00,59.5,0.0,29.84,South,180,4.0,16.0,0,0.00,,,0.07,Weather View 32 v70,2013-02-11 20:49:00,
2013-02-11 15:54:00,59.4,0.0,29.83,West,270,7.0,16.0,0,0.00,,,0.07,Weather View 32 v70,2013-02-11 20:54:00,
2013-02-11 15:59:00,59.2,0.0,29.84,West,270,7.0,16.0,0,0.00,,,0.07,Weather View 32 v70,2013-02-11 20:59:00,
2013-02-11 16:04:00,59.2,0.0,29.83,North,0,9.0,17.0,0,0.00,,,0.07,Weather View 32 v70,2013-02-11 21:04:00,
2013-02-11 16:09:00,59.4,0.0,29.82,West,270,3.0,17.0,0,0.00,,,0.07,Weather View 32 v70,2013-02-11 21:09:00,
2013-02-11 16:15:00,59.4,0.0,29.83,West,270,3.0,17.0,0,0.00,,,0.07,Weather View 32 v70,2013-02-11 21:15:00,
2013-02-11 16:20:00,59.4,0.0,29.81,North,0,7.0,17.0,0,0.00,,,0.07,Weather View 32 v70,2013-02-11 21:20:00,
2013-02-11 16:25:00,59.5,0.0,29.83,West,270,4.0,17.0,0,0.00,,,0.07,Weather View 32 v70,2013-02-11 21:25:00,
2013-02-11 16:30:00,59.5,0.0,29.84,West,270,1.0,17.0,0,0.00,,,0.07,Weather View 32 v70,2013-02-11 21:30:00,
2013-02-11 16:35:00,59.4,0.0,29.83,West,270,4.0,17.0,0,0.00,,,0.07,Weather View 32 v70,2013-02-11 21:35:00,
2013-02-11 16:40:00,59.4,0.0,29.82,West,270,1.0,17.0,0,0.00,,,0.07,Weather View 32 v70,2013-02-11 21:40:00,
2013-02-11 16:45:00,59.0,0.0,29.83,West,270,8.0,17.0,0,0.00,,,0.07,Weather View 32 v70,2013-02-11 21:45:00,
2013-02-11 16:50:00,59.2,0.0,29.83,West,270,6.0,17.0,0,0.00,,,0.07,Weather View 32 v70,2013-02-11 21:50:00,
2013-02-11 16:55:00,59.4,0.0,29.83,North,0,4.0,17.0,0,0.00,,,0.07,Weather View 32 v70,2013-02-11 21:55:00,
2013-02-11 17:00:00,59.2,0.0,29.83,West,270,4.0,17.0,0,0.00,,,0.07,Weather View 32 v70,2013-02-11 22:00:00,
2013-02-11 17:06:00,59.4,0.0,29.84,WNW,293,2.0,13.0,0,0.00,,,0.07,Weather View 32 v70,2013-02-11 22:06:00,
2013-02-11 17:11:00,59.4,0.0,29.84,West,270,1.0,13.0,0,0.00,,,0.07,Weather View 32 v70,2013-02-11 22:11:00,
2013-02-11 17:16:00,59.5,0.0,29.85,South,180,4.0,13.0,0,0.00,,,0.07,Weather View 32 v70,2013-02-11 22:16:00,
2013-02-11 17:22:00,59.5,0.0,29.84,West,270,1.0,13.0,0,0.00,,,0.07,Weather View 32 v70,2013-02-11 22:22:00,
2013-02-11 17:27:00,59.5,0.0,29.83,West,270,1.0,13.0,0,0.00,,,0.07,Weather View 32 v70,2013-02-11 22:27:00,
2013-02-11 17:32:00,59.4,0.0,29.84,West,270,4.0,13.0,0,0.00,,,0.07,Weather View 32 v70,2013-02-11 22:32:00,
2013-02-11 17:37:00,59.4,0.0,29.84,West,270,1.0,13.0,0,0.00,,,0.07,Weather View 32 v70,2013-02-11 22:37:00,
2013-02-11 17:42:00,59.2,0.0,29.85,North,0,4.0,13.0,0,0.00,,,0.07,Weather View 32 v70,2013-02-11 22:42:00,
2013-02-11 17:48:00,59.2,0.0,29.85,North,0,3.0,13.0,0,0.00,,,0.07,Weather View 32 v70,2013-02-11 22:48:00,
2013-02-11 17:53:00,58.8,0.0,29.91,WNW,293,0.0,13.0,0,0.00,,,0.07,Weather View 32 v70,2013-02-11 22:53:00,
2013-02-11 17:58:00,59.0,0.0,29.84,West,270,0.0,13.0,0,0.00,,,0.07,Weather View 32 v70,2013-02-11 22:58:00,
2013-02-11 18:03:00,58.8,0.0,29.84,West,270,0.0,13.0,0,0.00,,,0.07,Weather View 32 v70,2013-02-11 23:03:00,
2013-02-11 18:08:00,58.6,0.0,29.92,WNW,293,3.0,13.0,0,0.00,,,0.07,Weather View 32 v70,2013-02-11 23:08:00,
2013-02-11 18:13:00,58.8,0.0,29.89,West,270,0.0,12.0,0,0.00,,,0.07,Weather View 32 v70,2013-02-11 23:13:00,
2013-02-11 18:19:00,58.8,0.0,29.91,WNW,293,6.0,12.0,0,0.00,,,0.07,Weather View 32 v70,2013-02-11 23:19:00,
2013-02-11 18:24:00,58.6,0.0,29.84,West,270,2.0,12.0,0,0.00,,,0.07,Weather View 32 v70,2013-02-11 23:24:00,
2013-02-11 18:29:00,58.3,0.0,29.87,North,0,1.0,10.0,0,0.00,,,0.07,Weather View 32 v70,2013-02-11 23:29:00,
2013-02-11 18:34:00,58.3,0.0,29.84,West,270,2.0,10.0,0,0.00,,,0.07,Weather View 32 v70,2013-02-11 23:34:00,
2013-02-11 18:40:00,57.9,0.0,29.88,West,270,3.0,10.0,0,0.00,,,0.07,Weather View 32 v70,2013-02-11 23:40:00,
2013-02-11 18:45:00,57.7,0.0,29.85,South,180,4.0,10.0,0,0.00,,,0.07,Weather View 32 v70,2013-02-11 23:45:00,
2013-02-11 18:50:00,57.7,0.0,29.85,West,270,3.0,10.0,0,0.00,,,0.07,Weather View 32 v70,2013-02-11 23:50:00,
2013-02-11 18:55:00,57.7,0.0,29.86,West,270,3.0,10.0,0,0.00,,,0.07,Weather View 32 v70,2013-02-11 23:55:00,
2013-02-11 19:00:00,57.7,0.0,29.87,West,270,0.0,10.0,0,0.00,,,0.07,Weather View 32 v70,2013-02-12 00:00:00,
2013-02-11 19:05:00,57.6,0.0,29.86,West,270,2.0,10.0,0,0.00,,,0.07,Weather View 32 v70,2013-02-12 00:05:00,
2013-02-11 19:10:00,57.6,0.0,29.85,South,180,7.0,10.0,0,0.00,,,0.07,Weather View 32 v70,2013-02-12 00:10:00,
2013-02-11 19:15:00,57.6,0.0,29.85,North,0,6.0,10.0,0,0.00,,,0.07,Weather View 32 v70,2013-02-12 00:15:00,
2013-02-11 19:20:00,57.6,0.0,29.84,West,270,2.0,10.0,0,0.00,,,0.07,Weather View 32 v70,2013-02-12 00:20:00,
2013-02-11 19:25:00,57.2,0.0,29.87,West,270,2.0,10.0,0,0.00,,,0.07,Weather View 32 v70,2013-02-12 00:25:00,
2013-02-11 19:30:00,57.2,0.0,29.86,North,0,4.0,10.0,0,0.00,,,0.07,Weather View 32 v70,2013-02-12 00:30:00,
2013-02-11 19:35:00,57.2,0.0,29.86,West,270,4.0,10.0,0,0.00,,,0.07,Weather View 32 v70,2013-02-12 00:35:00,
2013-02-11 19:40:00,57.2,0.0,29.88,West,270,2.0,10.0,0,0.00,,,0.07,Weather View 32 v70,2013-02-12 00:40:00,
2013-02-11 19:45:00,57.2,0.0,29.86,West,270,6.0,10.0,0,0.00,,,0.07,Weather View 32 v70,2013-02-12 00:45:00,
2013-02-11 19:50:00,57.0,0.0,29.86,South,180,5.0,11.0,0,0.00,,,0.07,Weather View 32 v70,2013-02-12 00:50:00,
2013-02-11 19:55:00,57.0,0.0,29.85,West,270,0.0,11.0,0,0.00,,,0.07,Weather View 32 v70,2013-02-12 00:55:00,
2013-02-11 20:00:00,56.8,0.0,29.86,West,270,4.0,11.0,0,0.00,,,0.07,Weather View 32 v70,2013-02-12 01:00:00,
2013-02-11 20:05:00,56.7,0.0,29.85,West,270,0.0,11.0,0,0.00,,,0.07,Weather View 32 v70,2013-02-12 01:05:00,
2013-02-11 20:10:00,56.3,0.0,29.85,West,270,3.0,11.0,0,0.00,,,0.07,Weather View 32 v70,2013-02-12 01:10:00,
2013-02-11 20:15:00,55.9,0.0,29.85,West,270,2.0,11.0,0,0.00,,,0.07,Weather View 32 v70,2013-02-12 01:15:00,
2013-02-11 20:21:00,55.9,0.0,29.89,West,270,1.0,11.0,0,0.00,,,0.07,Weather View 32 v70,2013-02-12 01:21:00,
2013-02-11 20:26:00,55.8,0.0,29.88,West,270,0.0,11.0,0,0.00,,,0.07,Weather View 32 v70,2013-02-12 01:26:00,
2013-02-11 20:31:00,55.6,0.0,29.85,West,270,0.0,11.0,0,0.00,,,0.07,Weather View 32 v70,2013-02-12 01:31:00,
2013-02-11 20:36:00,55.6,0.0,29.85,West,270,1.0,11.0,0,0.00,,,0.07,Weather View 32 v70,2013-02-12 01:36:00,
2013-02-11 20:41:00,55.4,0.0,29.85,North,0,4.0,11.0,0,0.00,,,0.07,Weather View 32 v70,2013-02-12 01:41:00,
2013-02-11 20:46:00,55.4,0.0,29.86,West,270,0.0,11.0,0,0.00,,,0.07,Weather View 32 v70,2013-02-12 01:46:00,
2013-02-11 20:52:00,55.2,0.0,29.86,West,270,0.0,8.0,0,0.00,,,0.07,Weather View 32 v70,2013-02-12 01:52:00,
2013-02-11 20:57:00,55.4,0.0,29.86,West,270,2.0,8.0,0,0.00,,,0.07,Weather View 32 v70,2013-02-12 01:57:00,
2013-02-11 21:02:00,55.2,0.0,29.86,West,270,0.0,8.0,0,0.00,,,0.07,Weather View 32 v70,2013-02-12 02:02:00,
2013-02-11 21:07:00,55.2,0.0,29.86,West,270,0.0,8.0,0,0.00,,,0.07,Weather View 32 v70,2013-02-12 02:07:00,
2013-02-11 21:12:00,55.0,0.0,29.87,West,270,3.0,8.0,0,0.00,,,0.07,Weather View 32 v70,2013-02-12 02:12:00,
2013-02-11 21:17:00,54.9,0.0,29.85,West,270,5.0,8.0,0,0.00,,,0.07,Weather View 32 v70,2013-02-12 02:17:00,
2013-02-11 21:22:00,54.9,0.0,29.85,North,0,5.0,8.0,0,0.00,,,0.07,Weather View 32 v70,2013-02-12 02:22:00,
2013-02-11 21:28:00,54.7,0.0,29.85,West,270,0.0,8.0,0,0.00,,,0.07,Weather View 32 v70,2013-02-12 02:28:00,
2013-02-11 21:33:00,54.7,0.0,29.85,West,270,1.0,8.0,0,0.00,,,0.07,Weather View 32 v70,2013-02-12 02:33:00,
2013-02-11 21:38:00,54.7,0.0,29.86,West,270,0.0,8.0,0,0.00,,,0.07,Weather View 32 v70,2013-02-12 02:38:00,
2013-02-11 21:43:00,54.5,0.0,29.84,South,180,1.0,8.0,0,0.00,,,0.07,Weather View 32 v70,2013-02-12 02:43:00,
2013-02-11 21:48:00,54.5,0.0,29.84,West,270,2.0,8.0,0,0.00,,,0.07,Weather View 32 v70,2013-02-12 02:48:00,
2013-02-11 21:53:00,54.5,0.0,29.85,West,270,2.0,8.0,0,0.00,,,0.07,Weather View 32 v70,2013-02-12 02:53:00,
2013-02-11 21:58:00,54.3,0.0,29.86,West,270,0.0,8.0,0,0.00,,,0.07,Weather View 32 v70,2013-02-12 02:58:00,
2013-02-11 22:03:00,54.1,0.0,29.85,West,270,2.0,8.0,0,0.00,,,0.07,Weather View 32 v70,2013-02-12 03:03:00,
2013-02-11 22:08:00,54.1,0.0,29.85,WNW,293,3.0,8.0,0,0.00,,,0.07,Weather View 32 v70,2013-02-12 03:08:00,
2013-02-11 22:13:00,54.3,0.0,29.85,West,270,0.0,8.0,0,0.00,,,0.07,Weather View 32 v70,2013-02-12 03:13:00,
2013-02-11 22:19:00,54.0,0.0,29.85,West,270,2.0,8.0,0,0.00,,,0.07,Weather View 32 v70,2013-02-12 03:19:00,
2013-02-11 22:24:00,54.1,0.0,29.83,West,270,1.0,8.0,0,0.00,,,0.07,Weather View 32 v70,2013-02-12 03:24:00,
2013-02-11 22:29:00,54.0,0.0,29.86,WNW,293,3.0,8.0,0,0.00,,,0.07,Weather View 32 v70,2013-02-12 03:29:00,
2013-02-11 22:34:00,54.0,0.0,29.85,West,270,0.0,8.0,0,0.00,,,0.07,Weather View 32 v70,2013-02-12 03:34:00,
2013-02-11 22:39:00,53.8,0.0,29.86,West,270,2.0,8.0,0,0.00,,,0.07,Weather View 32 v70,2013-02-12 03:39:00,
2013-02-11 22:44:00,53.6,0.0,29.84,West,270,1.0,8.0,0,0.00,,,0.07,Weather View 32 v70,2013-02-12 03:44:00,
2013-02-11 22:49:00,53.8,0.0,29.85,West,270,1.0,10.0,0,0.00,,,0.07,Weather View 32 v70,2013-02-12 03:49:00,
2013-02-11 22:55:00,53.6,0.0,29.85,West,270,1.0,10.0,0,0.00,,,0.07,Weather View 32 v70,2013-02-12 03:55:00,
2013-02-11 23:00:00,53.8,0.0,29.86,West,270,1.0,10.0,0,0.00,,,0.07,Weather View 32 v70,2013-02-12 04:00:00,
2013-02-11 23:05:00,53.4,0.0,29.85,West,270,3.0,10.0,0,0.00,,,0.07,Weather View 32 v70,2013-02-12 04:05:00,
2013-02-11 23:10:00,53.2,0.0,29.85,West,270,1.0,10.0,0,0.00,,,0.07,Weather View 32 v70,2013-02-12 04:10:00,
2013-02-11 23:15:00,53.1,0.0,29.84,West,270,6.0,10.0,0,0.00,,,0.07,Weather View 32 v70,2013-02-12 04:15:00,
2013-02-11 23:20:00,53.1,0.0,29.86,West,270,0.0,10.0,0,0.00,,,0.07,Weather View 32 v70,2013-02-12 04:20:00,
2013-02-11 23:25:00,53.1,0.0,29.85,West,270,2.0,10.0,0,0.00,,,0.07,Weather View 32 v70,2013-02-12 04:25:00,
2013-02-11 23:30:00,52.9,0.0,29.87,SSE,158,3.0,10.0,0,0.00,,,0.07,Weather View 32 v70,2013-02-12 04:30:00,
2013-02-11 23:35:00,53.1,0.0,29.86,West,270,4.0,10.0,0,0.00,,,0.07,Weather View 32 v70,2013-02-12 04:35:00,
2013-02-11 23:40:00,53.2,0.0,29.86,NW,315,1.0,10.0,0,0.00,,,0.07,Weather View 32 v70,2013-02-12 04:40:00,
2013-02-11 23:45:00,53.1,0.0,29.89,West,270,6.0,10.0,0,0.00,,,0.07,Weather View 32 v70,2013-02-12 04:45:00,
2013-02-11 23:50:00,53.2,0.0,29.86,WNW,293,3.0,9.0,0,0.00,,,0.07,Weather View 32 v70,2013-02-12 04:50:00,
2013-02-11 23:55:00,53.1,0.0,29.88,West,270,1.0,9.0,0,0.00,,,0.07,Weather View 32 v70,2013-02-12 04:55:00,